Terminal Aerodrome Forecast
Issued by NWS Spokane, WA

Home | Current Version | Previous Version | Text Only | Print | Product List | Glossary On
Versions: 1 2 3 4 5 6 7 8 9 10 11 12 13 14 15 16 17 18 19 20 21 22 23 24 25 26
000
FTUS46 KOTX 260533
TAFEAT
TAF
KEAT 260533Z 2606/2706 30009KT P6SM FEW080
     FM261200 32008KT P6SM SKC
     FM262100 13005KT P6SM SCT100
     FM270300 11004KT P6SM SCT080 BKN100=

USA.gov is the U.S. government's official web portal to all federal, state and local government web resources and services.